Regional Weather Roundup
Issued by NWS Little Rock, AR

Home | Current Version | Previous Version | Text Only | Print | Product List | Glossary Off
Versions: 1 2 3 4 5 6 7 8 9 10 11 12 13 14 15 16 17 18 19 20 21 22 23 24 25 26 27 28 29 30 31 32 33 34 35 36 37 38 39 40 41 42 43 44 45 46 47 48 49 50

070
ASUS44 KLZK 270305
RWRLZK

WEATHER ROUNDUP FOR ARKANSAS
NATIONAL WEATHER SERVICE LITTLE ROCK AR
1000 PM CDT SUN MAR 26 2017

NOTE: "FAIR" INDICATES FEW OR NO CLOUDS BELOW 12,000 FEET WITH NO
SIGNIFICANT WEATHER AND/OR OBSTRUCTIONS TO VISIBILITY.

ARZ001-003-010-029-270400-
NORTHWEST ARKANSAS

CITY           SKY/WX    TMP DP  RH WIND       PRES   REMARKS
FAYETTEVILLE   TSTM      60  55  83 NW12      29.85R
FORT SMITH     CLOUDY    66  51  58 E9        29.77F
HARRISON       CLOUDY    62  50  64 SE10      29.87R
BENTONVILLE    CLOUDY    57  54  88 CALM      29.92R THUNDER
ROGERS         TSTM      58  54  86 NW10      29.92R
SILOAM SPGS    CLOUDY    57  54  88 SW5       29.91R THUNDER
HIGHFILL       TSTM      58  56  93 NE6       29.90R FOG
$$

ARZ004-005-016-270400-
NORTH CENTRAL ARKANSAS

CITY           SKY/WX    TMP DP  RH WIND       PRES   REMARKS
BATESVILLE     PTCLDY    63  50  63 SE7       29.90F
FLIPPIN        CLOUDY    64  46  52 SE5       29.85R
MTN HOME       PTCLDY    63  49  60 SE9       29.86F
$$

ARZ040-041-270400-
WEST CENTRAL ARKANSAS

CITY           SKY/WX    TMP DP  RH WIND       PRES   REMARKS
MENA           CLOUDY    77  55  47 SE10G22   29.83R
MOUNT IDA      PTCLDY    68  51  54 CALM      29.82R
$$

ARZ009-017-025-026-028-270400-
NORTHEAST ARKANSAS

CITY           SKY/WX    TMP DP  RH WIND       PRES   REMARKS
CORNING        FAIR      59  55  88 SE8       29.92F
JONESBORO      CLOUDY    60  54  80 CALM      29.93R
NEWPORT        PTCLDY    61  56  83 E8        29.91
WALNUT RIDGE   CLOUDY    61  52  72 SE8       29.92S
BLYTHEVILLE    CLOUDY    60  56  86 E8        29.95S
$$

ARZ022-023-033-042-044-270400-
CENTRAL ARKANSAS

CITY           SKY/WX    TMP DP  RH WIND       PRES   REMARKS
LITTLE ROCK    PTCLDY    63  55  75 SE7       29.88R
N LITTLE ROCK    N/A     66  55  68 E7        29.89S
JACKSONVILLE   CLEAR     65  55  70 E3        29.87S
CONWAY           N/A     68  54  60 SE12      29.85R
SEARCY         PTCLDY    64  55  72 E5        29.91S
HOT SPRINGS    CLOUDY    70  51  51 E6        29.86R
RUSSELLVILLE   CLOUDY    68  51  54 E9G17     29.83S
CLINTON        FAIR      55  54  94 CALM      29.88S
$$

ARZ036-270400-
EAST ARKANSAS

CITY           SKY/WX    TMP DP  RH WIND       PRES   REMARKS
WEST MEMPHIS   CLOUDY    61  57  87 S5        29.93S
$$

ARZ050-053-066-070-073-270400-
SOUTHWEST ARKANSAS

CITY           SKY/WX    TMP DP  RH WIND       PRES   REMARKS
ARKADELPHIA    FAIR      66  59  78 CALM      29.86R
CAMDEN         LGT RAIN  68  50  52 SE7       29.87R
TEXARKANA      CLOUDY    73  58  59 S13       29.83R
EL DORADO      CLOUDY    68  57  68 SE5       29.87R
DE QUEEN       CLOUDY    74  58  57 VRB3      29.80R
$$

ARZ056-057-069-270400-
SOUTHEAST ARKANSAS

CITY           SKY/WX    TMP DP  RH WIND       PRES   REMARKS
PINE BLUFF     MOCLDY    66  58  75 E7        29.89R
STUTTGART      MOCLDY    66  50  55 SE8       29.90S
MONTICELLO     CLOUDY    70  55  59 SE3       29.89S

$$






USA.gov is the U.S. government's official web portal to all federal, state and local government web resources and services.